Погода в Нарьян-Маре

Россия / Ненецкий автономный округ     67°38′16″N   53°00′24″E
темп.,
°C
ветер,
м/с
пор.,
м/с
влажн.,
%
обл.,
%
осадки,
мм/ч
давл.,
гПа
погр.,
м
24 января, пн
пн2400:00−10ююз9178895 0.0 1015496
03:00−11ююз9168965 0.0 1015442
06:00−12ююз9179196 0.0 1013425
09:00−13ююз91792100 0.0 1011397
12:00−11ю101993100 0.1 1008447
15:00−10ююз111992100 0.6 1006508
18:00−9ю101892100 0.2 1004493
21:00−7ююз101893100 0.4 1001507
25 января, вт
вт2500:00−4ююз101893100 0.5 999684
03:00−2ююз101794100 0.8 997722
06:00−2юз91696100 0.9 996785
09:00−2юз8149698 2.2 997584
12:00−2зюз51096100 0.2 998319
15:00−4зюз3695100 0.4 999102
18:00−9зюз3692100 0.0 100166
21:00−11зюз479379 0.0 100277
26 января, ср
ср2600:00−14юз479412 0.0 100269
03:00−14юз499642 0.0 100394
06:00−14юз4109648 0.0 1003107
09:00−15юз499638 0.0 1004117
12:00−16ююз59976 0.0 1004121
15:00−16юз511965 0.0 1005151
18:00−16юз612945 0.0 1006177
21:00−16юз612945 0.0 1006177
27 января, чт
чт2700:00−16ююз6119673 0.0 1006171
03:00−17ююз6129654 0.0 1007172
06:00−17ююз6119643 0.0 1007163
09:00−18ююз5119571 0.0 1008156
12:00−18ююз511955 0.0 1008156
15:00−19ююз510965 0.0 1009129
18:00−18ююз511957 0.0 1008137
21:00−18ююз5119212 0.0 1008156
28 января, пт
пт2800:00−17ююз5119555 0.0 1008165
03:00−15ююз51195100 0.1 1009196
06:00−13ююз51192100 0.0 1009211
09:00−13ююз51190100 0.0 1010209
12:00−15ююз5119024 0.0 1011189
15:00−18ююз4109130 0.0 1012117
18:00−19ююз4992100 0.0 1013106
21:00−19ююз4992100 0.0 1013117